This is the latest recevied weather packets stored in our database for station/object KC5TIL. If no packets are shown the sender has not sent any weather packets the latest 10 day(s).
| Time | Temp. | Humidity | Pressure | Rain* | Wind** | Luminosity | Snow |
|---|---|---|---|---|---|---|---|
| 1778002472 | 30° C | 63% | 1006.1 hPa | 0 mm | - | 753 W/m² | - |
| 1778002170 | 29.44° C | 64% | 1006.2 hPa | 0 mm | - | 596 W/m² | - |
| 1778001868 | 28.89° C | 66% | 1006.2 hPa | 0 mm | - | 586 W/m² | - |
| 1778001567 | 28.33° C | 67% | 1006.2 hPa | 0 mm | - | 512 W/m² | - |
| 1778001264 | 28.33° C | 67% | 1006.3 hPa | 0 mm | - | 353 W/m² | - |
| 1778000961 | 28.33° C | 67% | 1006.3 hPa | 0 mm | - | 335 W/m² | - |
| 1778000657 | 28.89° C | 66% | 1006.3 hPa | 0 mm | - | 348 W/m² | - |
| 1778000353 | 28.89° C | 65% | 1006.3 hPa | 0 mm | - | 418 W/m² | - |
| 1778000049 | 28.89° C | 65% | 1006.5 hPa | 0 mm | - | 456 W/m² | - |
| 1777999744 | 28.89° C | 66% | 1006.4 hPa | 0 mm | - | 606 W/m² | - |
| 1777999441 | 28.89° C | 66% | 1006.4 hPa | 0 mm | - | 657 W/m² | - |
| 1777999140 | 28.33° C | 67% | 1006.4 hPa | 0 mm | - | 659 W/m² | - |
| 1777998838 | 28.33° C | 68% | 1006.2 hPa | 0 mm | - | 629 W/m² | - |
| 1777998536 | 28.33° C | 68% | 1005.8 hPa | 0 mm | - | 575 W/m² | - |
| 1777998232 | 28.33° C | 67% | 1005.8 hPa | 0 mm | - | 621 W/m² | - |
| 1777997929 | 28.89° C | 67% | 1005.9 hPa | 0 mm | - | 776 W/m² | - |
| 1777997626 | 27.78° C | 69% | 1005.8 hPa | 0 mm | - | 799 W/m² | - |
| 1777997323 | 27.78° C | 70% | 1006 hPa | 0 mm | - | 684 W/m² | - |
| 1777997021 | 27.78° C | 71% | 1006 hPa | 0 mm | - | 682 W/m² | - |
| 1777996717 | 27.78° C | 71% | 1005.9 hPa | 0 mm | - | 656 W/m² | - |
| 1777996413 | 27.22° C | 71% | 1006.1 hPa | 0 mm | - | 511 W/m² | - |
| 1777996110 | 26.67° C | 71% | 1006.1 hPa | 0 mm | - | 475 W/m² | - |
| 1777995806 | 26.67° C | 73% | 1006.1 hPa | 0 mm | - | 448 W/m² | - |
| 1777995502 | 26.11° C | 74% | 1006 hPa | 0 mm | - | 361 W/m² | - |
| 1777992564 | 25° C | 77% | 1006.1 hPa | 0 mm | - | 361 W/m² | - |
* Rain latest hour (hover to see other rain measurements)
** Current wind speed in m/s (hover to see current wind gust speed)